Regional Weather Roundup
Issued by NWS

Home | Current Version | Previous Version | Text Only | Print | Product List | Glossary Off
Versions: 1 2 3 4 5 6 7 8 9 10 11 12 13 14 15 16 17 18 19 20 21 22 23 24 25 26 27 28 29 30 31 32 33 34 35 36 37 38 39 40 41 42 43 44 45 46 47 48 49 50

737
ASUS45 KCYS 232110
RWRWY

WYOMING REGIONAL WEATHER ROUNDUP
NATIONAL WEATHER SERVICE CHEYENNE WY
200 PM MST THU FEB 23 2017

NOTE:  "FAIR" INDICATES FEW OR NO CLOUDS BELOW 12,000 FEET
WITH NO SIGNIFICANT WEATHER AND/OR OBSTRUCTIONS TO VISIBILITY.

WYZ001-232200-
YELLOWSTONE NATIONAL PARK

CITY           SKY/WX    TMP DP  RH WIND       PRES   REMARKS
LK YELLOWSTONE   N/A     18   8  65 NE3       29.69R
W YELLOWSTONE  NOT AVBL

$$
WYZ002>013-054>058-071-098>099-232200-
NORTHERN WYOMING

CITY           SKY/WX    TMP DP  RH WIND       PRES   REMARKS
JACKSON        FAIR      28  16  59 N17G23    29.63S WCI  16
CODY           CLOUDY    25  18  74 N12       29.82R WCI  14
GREYBULL       CLOUDY    31  21  66 W16       29.77R WCI  20
WORLAND        LGT SNOW  28  25  88 NW15      29.76S VSB 1   WCI  16
SHERIDAN       FLURRIES  29  24  82 VRB3      29.87S
BUFFALO        LGT SNOW  26  21  81 N15G25    29.82S VSB 3/4 WCI  14
GILLETTE       LGT SNOW  27  24  89 NE17      29.81S FOG     WCI  14
HULETT         FLURRIES  27  23  86 MISG      29.84S
NEWCASTLE      SNOW      28  27  93 CALM      29.80S VSB 1/2

$$
WYZ014>020-022>026-101>103-232200-
CENTRAL WYOMING

CITY           SKY/WX    TMP DP  RH WIND       PRES   REMARKS
BIG PINEY      CLOUDY    26  17  68 N12       29.61R WCI  16
PINEDALE       CLOUDY    27  10  50 NE14      29.61S WCI  15
DUBOIS         LGT SNOW  21  18  86 S12       29.63R WCI   9
LANDER         FOG       24  21  88 N12       29.70R VSB 1/2 WCI  13
RIVERTON       SNOW      23  20  88 N18       29.70S VSB 1/4 WCI   9
CASPER         SNOW      20  17  88 E22G28    29.71R VSB 1/2 WCI   3
DOUGLAS        LGT SNOW  20  16  84 E16       29.76R FOG     WCI   6

$$
WYZ021-027>030-104>119-232200-
SOUTHERN WYOMING

CITY           SKY/WX    TMP DP  RH WIND       PRES   REMARKS
EVANSTON       CLOUDY    22  13  68 W23       29.65R WCI   6
FORT BRIDGER   LGT SNOW  24  23  96 W18       29.67S VSB 1   WCI  10
ROCK SPRINGS   HAZE      22  16  78 N31G39    29.59R VSB 3/4 WCI   4
DIXON            N/A     28  19  69 S17G26    29.61S WCI  16
RAWLINS        LGT SNOW  22  17  81 E17       29.57R WCI   8
SARATOGA       FAIR      28  18  64 NE14      29.56R WCI  17
LARAMIE        LGT SNOW  17  11  77 E13       29.55R WCI   4
CHEYENNE       HVY SNOW  19  14  81 N14G25    29.61R VSB 1/4 WCI   6
TORRINGTON     SNOW      22  18  85 NE20G26   29.71R VSB 1/2 WCI   7
PINE BLUFFS    CLOUDY    23  19  86 N26       29.63R WCI   6

$$




USA.gov is the U.S. government's official web portal to all federal, state and local government web resources and services.